Regional Weather Roundup
Issued by NWS

Home | Current Version | Previous Version | Graphics & Text | Print | Product List | Glossary On
Versions: 1 2 3 4 5 6 7 8 9 10 11 12 13 14 15 16 17 18 19 20 21 22 23 24 25 26 27
000
ASUS45 KBOU 210007
RWRCO

WEATHER ROUNDUP FOR COLORADO
NATIONAL WEATHER SERVICE DENVER/BOULDER CO
500 PM MST MON FEB 20 2017

NOTE: "FAIR" INDICATES FEW OR NO CLOUDS BELOW 12000 FEET WITH NO
SIGNIFICANT WEATHER AND/OR OBSTRUCTIONS TO VISIBILITY.

COZ001>005-013-030-031-210100-
...NORTHWEST COLORADO...

CITY           SKY/WX    TMP DP  RH WIND       PRES   REMARKS
CRAIG          FAIR      46  29  51 S3        30.12F
HAYDEN         FAIR      39  27  60 SE8       30.13F
MEEKER         FAIR      46  31  55 S3        30.13F
MOUNT WERNER   NOT AVBL
STEAMBOAT SPGS FAIR      42  25  50 CALM      30.15S
WALDEN         NOT AVBL
$$

COZ006>008-011-210100-
...WEST CENTRAL VALLEYS...

CITY           SKY/WX    TMP DP  RH WIND       PRES   REMARKS
GRAND JUNCTION FAIR      50  39  66 NW10      30.14F
MONTROSE       FAIR      54  29  38 NW6       30.17S
EAGLE          PTCLDY    46  25  42 NW6       30.18F
RIFLE          FAIR      50  33  52 W8        30.14S
DELTA          FAIR      56  30  37 N3        30.16S
NUCLA          FAIR      50  30  46 SW9       30.23S
$$

COZ017>023-064>068-210100-
...SOUTHWEST COLORADO...

CITY           SKY/WX    TMP DP  RH WIND       PRES   REMARKS
DURANGO        FAIR      49  29  46 SW12      30.22S
CORTEZ         FAIR      50  33  52 W6        30.23S
PAGOSA SPRINGS FAIR      45  25  45 CALM      30.27R
TELLURIDE      FAIR      44  17  33 W7        30.25S
WOLF CREEK PAS FAIR      28  21  74 SW8       30.38R WCI  20
$$

COZ009-010-012-014-032>034-037-058>063-210100-
...CENTRAL COLORADO...

CITY           SKY/WX    TMP DP  RH WIND       PRES   REMARKS
ASPEN          FAIR      43  19  38 NW3       30.17F
BUENA VISTA    FAIR      45  13  28 W9G29     30.18R
COPPER MTN     FAIR      28  12  50 W8        30.27R WCI  20
BERTHOUD PASS  FAIR      21  10  63 W17       30.27R WCI   7
COTTONWOOD PAS FAIR      39   9  28 SW30G44   30.20R
GUNNISON       FAIR      34  23  64 E6        30.25S WCI  29
KREMMLING      FAIR      48  23  37 SW6       30.18S
LEADVILLE      MOCLDY    32  14  47 N6        30.21S WCI  26
MONARCH PASS   FAIR      25  12  58 W30       30.40R WCI   8
SALIDA         FAIR      50  13  23 W20G36    30.22F
SUNLIGHT       NOT AVBL
WILKERSON PASS FAIR      32   9  37 W14G26    30.24R WCI  22
$$

COZ069>075-210100-
...SAN LUIS VALLEY/SANGRE DE CRISTO MOUNTAINS...

CITY           SKY/WX    TMP DP  RH WIND       PRES   REMARKS
ALAMOSA        FAIR      48  19  31 S5        30.20R
LA VETA PASS   FAIR      34  14  44 MISG      30.23R
SAGUACHE       FAIR      46  14  27 NW10      30.21S
$$

COZ035-036-038>040-210100-
...NORTHERN COLORADO FRONT RANGE...

CITY           SKY/WX    TMP DP  RH WIND       PRES   REMARKS
DENVER INTL AP FAIR      59  14  17 NW15      30.00R
DMNS CITY PARK   N/A     60  10  14 NW6G18    30.00R
AURORA         PTCLDY    59  12  15 W6        30.01R
FRONT RANGE AP PTCLDY    61  14  16 NW12G21   30.01R
ERIE MUNI ARPT FAIR      59  13  16 NW10      30.00R
BOULDER MUN AP FAIR      59  18  20 W12G17    29.99R
CENTENNIAL     FAIR      58   9  14 SE7       30.01R
BROOMFIELD     PTCLDY    57  16  19 W26G32    30.00S
FORT COLLINS   FAIR      59  19  21 W10       29.97R
LONGMONT       FAIR      60  17  18 W15G25    30.00R
$$

COZ041-046-047-076>085-087-088-210100-
...PIKES PEAK/PALMER DIVIDE AND SOUTHERN FOOTHILLS...

CITY           SKY/WX    TMP DP  RH WIND       PRES   REMARKS
COLO. SPRINGS  FAIR      57   4  12 S15       30.06R
A. F. ACADEMY  FAIR      57   7  13 W12       30.05R
SCHRIEVER AFB  FAIR      55   4  13 S12       30.07R
ELLICOTT       FAIR     N/A N/A N/A S9        30.05R
FALCON         FAIR      55   4  12 SW14      30.09R
FORT CARSON    FAIR      58   5  12 SE9       30.05R
LIMON          FAIR      57  12  17 CALM      30.04R
MONUMENT HILL  FAIR      52   9  17 CALM      30.09R
TRINIDAD       FAIR      61   8  12 NW12      30.07R
$$

COZ042>045-048>051-090-091-210100-
...NORTHEAST COLORADO...

CITY           SKY/WX    TMP DP  RH WIND       PRES   REMARKS
GREELEY ARPT   FAIR      61  16  17 SW8       29.97R
AKRON          FAIR      59  14  17 W7        29.99R
BURLINGTON     FAIR      60  13  15 N8        30.01R
WRAY           NOT AVBL
STERLING       FAIR      63  19  19 N9        29.94R
HOLYOKE        FAIR      61  14  16 N5        29.96S
FORT MORGAN    FAIR      60  11  14 SW7       29.98S
$$

COZ086-089-092>099-210100-
...SOUTHEAST COLORADO...

CITY           SKY/WX    TMP DP  RH WIND       PRES   REMARKS
PUEBLO         FAIR      63   7  11 SE16      30.00R
LA JUNTA       FAIR      64   9  11 S6        30.02R
LAMAR          FAIR      64  10  12 N8        30.01R
SPRINGFIELD      N/A     59   8  13 NW9       30.05R
$$




USA.gov is the U.S. government's official web portal to all federal, state and local government web resources and services.